Regional Weather Roundup
Issued by NWS

Home | Current Version | Previous Version | Graphics & Text | Print | Product List | Glossary On
Versions: 1 2 3 4 5 6 7 8 9 10 11 12 13 14 15 16 17 18 19 20 21 22 23 24 25 26 27 28 29 30 31 32 33 34 35 36 37 38 39 40 41 42 43 44 45 46 47 48 49 50
000
ASUS43 KOAX 280410
RWRNE

WEATHER ROUNDUP FOR NEBRASKA
NATIONAL WEATHER SERVICE OMAHA NE
1100 PM CDT WED AUG 27 2014

NOTES: SATELLITE DATA IS BEING USED TO AUGMENT CLOUD COVER ABOVE
       12000 FEET.
       "FAIR" INDICATES FEW OR NO CLOUDS BELOW 12,000 FEET WITH NO
       SIGNIFICANT WEATHER AND/OR OBSTRUCTIONS TO VISIBILITY.

  * THESE STATIONS DO NOT REPORT WEATHER SUCH AS RAIN...SNOW OR FOG.

NEZ001>004-019>022-054>056-280500-
NEBRASKA PANHANDLE

CITY           SKY/WX    TMP DP  RH WIND       PRES   REMARKS
SCOTTSBLUFF    CLOUDY    63  62  97 CALM      30.07S
ALLIANCE       CLOUDY    64  62  93 NW7       30.04F
CHADRON        CLOUDY    65  64  97 N6        30.05F
KIMBALL        CLOUDY    62  58  90 NW6       30.10S
SIDNEY         LGT RAIN  64  61  90 NE12      30.08F
$$

NEZ057>060-069>072-079>082-280500-
SOUTHWEST NEBRASKA

CITY           SKY/WX    TMP DP  RH WIND       PRES   REMARKS
NORTH PLATTE   CLOUDY    68  66  93 SE7       30.04S
IMPERIAL       CLOUDY    68  65  90 SE12      30.02R
LEXINGTON      CLOUDY    69  67  93 SE6       30.03F
MCCOOK         MOCLDY    68  67  96 E6        30.01S
OGALLALA       TSTM      60  58  94 E9G16     30.05S
$$

NEZ005>010-023>029-035>040-094-280500-
NORTH CENTRAL NEBRASKA

CITY           SKY/WX    TMP DP  RH WIND       PRES   REMARKS
VALENTINE      CLOUDY    68  67  96 E9        30.04F
AINSWORTH      CLOUDY    67  67  98 NE6       30.05F
BROKEN BOW     LGT RAIN  70  68  93 SE7       30.03F FOG
O`NEILL        LGT RAIN  70  70  99 E10       30.04F
ORD            LGT RAIN  70  68  93 SE5       30.03F
THEDFORD       CLOUDY    69  67  95 CALM      30.04F
$$

NEZ041-046>049-061>064-073>077-083>087-280500-
SOUTH CENTRAL NEBRASKA

CITY           SKY/WX    TMP DP  RH WIND       PRES   REMARKS
GRAND ISLAND   LGT RAIN  73  70  90 SE8       30.04S FOG
AURORA         RAIN      72  72 100 E6        30.05S
HASTINGS       LGT RAIN  72  69  90 SE12      30.02F
HEBRON         LGT RAIN  73  69  88 E5        30.02F
HOLDREGE       CLOUDY    68  66  93 E15       30.00F
KEARNEY *      CLOUDY    68  66  94 NW3       30.03F
YORK           LGT RAIN  72 N/A N/A E8        30.05S
$$

NEZ011>018-030>034-042>045-280500-
NORTHEAST NEBRASKA

CITY           SKY/WX    TMP DP  RH WIND       PRES   REMARKS
NORFOLK        CLOUDY    69  67  93 E9        30.06F
ALBION         CLOUDY    70  67  90 SE8       30.05F
BLAIR          LGT RAIN  72  69  91 E8        30.08S
FREMONT        RAIN      72  69  93 CALM      30.07S
TEKAMAH        CLOUDY    71  68  90 E7        30.07F
WAYNE          CLOUDY    69  67  95 SE8       30.08F
$$

NEZ050>053-065>068-078-088>093-280500-
SOUTHEAST NEBRASKA

CITY           SKY/WX    TMP DP  RH WIND       PRES   REMARKS
LINCOLN        CLOUDY    73  70  90 E5        30.05S
OMAHA EPPLEY   LGT RAIN  73  69  87 E7        30.07S
BEATRICE       CLOUDY    73  71  92 E3        30.03S
FALLS CITY     PTCLDY    72  69  90 E8        30.03F
NEBRASKA CITY  CLOUDY    70  70 100 E5        30.06S
PLATTSMOUTH    CLOUDY    71  68  92 E5        30.06F
$$

NEZ044-045-051>053-067-280500-
OMAHA AREA

CITY           SKY/WX    TMP DP  RH WIND       PRES   REMARKS
OMAHA EPPLEY   LGT RAIN  73  69  87 E7        30.07S
BLAIR          LGT RAIN  72  69  91 E8        30.08S
FREMONT        RAIN      72  69  93 CALM      30.07S
MILLARD        LGT RAIN  72  69  91 CALM      30.06S
OFFUTT AFB     CLOUDY    72  72 100 E6        30.06S
PLATTSMOUTH    CLOUDY    71  68  92 E5        30.06F
WAHOO          CLOUDY    71  68  91 CALM      30.06S
$$


USA.gov is the U.S. government's official web portal to all federal, state and local government web resources and services.